TimeCDT,TemperatureF,Dew PointF,Humidity,Sea Level PressureIn,VisibilityMPH,Wind Direction,Wind SpeedMPH,Gust SpeedMPH,PrecipitationIn,Events,Conditions,WindDirDegrees,DateUTC
12:03 AM,68.0,68.0,100,29.78,10.0,ESE,2.3,-,N/A,,Clear,120,2013-06-26 05:03:00
12:08 AM,68.0,68.0,100,29.78,3.0,ESE,2.3,-,N/A,,Clear,120,2013-06-26 05:08:00
12:13 AM,68.0,68.0,100,29.78,2.0,ESE,2.3,-,N/A,,Clear,110,2013-06-26 05:13:00
12:18 AM,68.0,68.0,100,29.78,4.0,East,3.5,-,N/A,,Clear,100,2013-06-26 05:18:00
12:23 AM,68.0,68.0,100,29.77,6.0,East,4.6,-,N/A,,Clear,90,2013-06-26 05:23:00
12:28 AM,68.0,68.0,100,29.78,1.8,East,4.6,-,N/A,,Clear,100,2013-06-26 05:28:00
12:33 AM,68.0,68.0,100,29.77,0.8,East,4.6,-,N/A,,Clear,100,2013-06-26 05:33:00
12:38 AM,69.8,69.8,100,29.77,1.0,ESE,5.8,-,N/A,,Clear,110,2013-06-26 05:38:00
12:43 AM,68.0,68.0,100,29.77,5.0,ESE,5.8,-,N/A,,Clear,110,2013-06-26 05:43:00
12:58 AM,69.1,69.1,100,29.77,4.0,ESE,4.6,-,N/A,,Clear,110,2013-06-26 05:58:00
1:03 AM,69.8,69.8,100,29.77,2.5,ESE,5.8,-,N/A,,Clear,110,2013-06-26 06:03:00
1:08 AM,69.8,69.8,100,29.77,1.2,ESE,4.6,-,N/A,,Clear,120,2013-06-26 06:08:00
1:13 AM,69.8,69.8,100,29.77,0.5,SE,3.5,-,N/A,Fog,Fog,130,2013-06-26 06:13:00
1:18 AM,68.0,68.0,100,29.77,0.8,ESE,3.5,-,N/A,,Clear,120,2013-06-26 06:18:00
1:23 AM,68.0,68.0,100,29.77,2.5,ESE,4.6,-,N/A,,Clear,110,2013-06-26 06:23:00
1:28 AM,69.8,69.8,100,29.77,2.0,SE,3.5,-,N/A,,Clear,130,2013-06-26 06:28:00
1:33 AM,68.0,68.0,100,29.78,2.5,SSE,3.5,-,N/A,,Clear,150,2013-06-26 06:33:00
1:38 AM,68.0,68.0,100,29.78,5.0,SE,3.5,-,N/A,,Clear,140,2013-06-26 06:38:00
1:48 AM,68.0,68.0,100,29.78,5.0,ESE,1.2,-,N/A,,Clear,120,2013-06-26 06:48:00
1:53 AM,68.0,68.0,100,29.78,0.8,ESE,2.3,-,N/A,,Clear,120,2013-06-26 06:53:00
1:54 AM,68.0,68.0,100,29.77,0.5,ESE,2.3,-,N/A,Fog,Fog,120,2013-06-26 06:54:00
1:58 AM,68.2,68.2,100,29.77,0.5,SE,1.2,-,N/A,Fog,Fog,140,2013-06-26 06:58:00
2:08 AM,68.0,68.0,100,29.77,0.8,SE,3.5,-,N/A,,Clear,130,2013-06-26 07:08:00
2:18 AM,68.0,68.0,100,29.77,1.5,SE,4.6,-,N/A,,Partly Cloudy,130,2013-06-26 07:18:00
2:23 AM,68.0,68.0,100,29.76,4.0,ESE,3.5,-,N/A,,Scattered Clouds,110,2013-06-26 07:23:00
2:33 AM,69.8,69.8,100,29.76,1.8,Variable,2.3,-,N/A,,Scattered Clouds,0,2013-06-26 07:33:00
2:34 AM,69.8,69.8,100,29.76,1.2,North,2.3,-,N/A,,Scattered Clouds,350,2013-06-26 07:34:00
2:39 AM,69.8,69.8,100,29.76,0.8,NE,3.5,-,N/A,,Mostly Cloudy,40,2013-06-26 07:39:00
2:44 AM,69.8,69.8,100,29.75,1.0,ENE,3.5,-,N/A,,Mostly Cloudy,70,2013-06-26 07:44:00
2:49 AM,69.8,69.8,100,29.75,1.8,East,5.8,-,N/A,,Mostly Cloudy,80,2013-06-26 07:49:00
2:54 AM,69.8,69.8,100,29.74,2.0,East,5.8,-,N/A,,Mostly Cloudy,100,2013-06-26 07:54:00
2:58 AM,70.3,70.3,100,29.73,2.0,ESE,4.6,-,N/A,,Mostly Cloudy,120,2013-06-26 07:58:00
3:03 AM,69.8,69.8,100,29.75,3.0,SE,5.8,-,N/A,,Mostly Cloudy,140,2013-06-26 08:03:00
3:08 AM,69.8,69.8,100,29.75,4.0,SE,6.9,-,N/A,,Scattered Clouds,140,2013-06-26 08:08:00
3:23 AM,69.8,69.8,100,29.74,4.0,SE,4.6,-,N/A,,Mostly Cloudy,130,2013-06-26 08:23:00
3:38 AM,69.8,69.8,100,29.75,2.5,ESE,5.8,-,N/A,,Overcast,120,2013-06-26 08:38:00
3:43 AM,71.6,71.6,100,29.74,1.5,East,5.8,-,N/A,,Overcast,100,2013-06-26 08:43:00
3:48 AM,71.6,71.6,100,29.73,1.2,ESE,4.6,-,N/A,,Overcast,120,2013-06-26 08:48:00
3:53 AM,71.6,71.6,100,29.73,1.0,ESE,4.6,-,N/A,,Mist,120,2013-06-26 08:53:00
3:58 AM,71.4,71.4,100,29.72,1.0,ESE,4.6,-,N/A,,Mist,120,2013-06-26 08:58:00
4:08 AM,71.6,71.6,100,29.74,0.8,ESE,5.8,-,N/A,,Mist,120,2013-06-26 09:08:00
4:18 AM,71.6,71.6,100,29.73,0.5,SE,4.6,-,N/A,Fog,Fog,140,2013-06-26 09:18:00
4:28 AM,71.6,71.6,100,29.73,0.5,SE,2.3,-,N/A,Fog,Fog,140,2013-06-26 09:28:00
4:43 AM,71.6,71.6,100,29.72,0.2,SSE,2.3,-,N/A,Fog,Fog,160,2013-06-26 09:43:00
4:58 AM,71.4,71.4,100,29.72,0.2,NE,2.3,-,N/A,Fog,Fog,50,2013-06-26 09:58:00
5:08 AM,71.6,71.6,100,29.72,0.2,East,2.3,-,N/A,Fog,Fog,80,2013-06-26 10:08:00
5:58 AM,71.8,71.8,100,29.73,0.2,ESE,5.8,-,N/A,Fog,Fog,110,2013-06-26 10:58:00
6:08 AM,71.6,71.6,100,29.74,0.2,East,4.6,-,N/A,Fog,Fog,100,2013-06-26 11:08:00
6:28 AM,71.6,71.6,100,29.74,0.2,ENE,3.5,-,N/A,Fog,Fog,70,2013-06-26 11:28:00
6:33 AM,71.6,71.6,100,29.74,0.5,ENE,3.5,-,N/A,Fog,Fog,60,2013-06-26 11:33:00
6:38 AM,71.6,71.6,100,29.74,0.5,East,3.5,-,N/A,Fog,Fog,90,2013-06-26 11:38:00
6:48 AM,71.6,71.6,100,29.75,0.8,ESE,5.8,-,N/A,,Mist,110,2013-06-26 11:48:00
6:58 AM,71.6,71.6,100,29.75,0.8,SE,6.9,-,N/A,,Overcast,140,2013-06-26 11:58:00
7:34 AM,71.6,71.6,100,29.76,7.0,SE,8.1,-,N/A,,Overcast,140,2013-06-26 12:34:00
7:58 AM,69.8,69.8,100,29.75,7.0,SSE,8.1,-,N/A,Rain,Light Rain Showers,160,2013-06-26 12:58:00
8:09 AM,69.8,69.8,100,29.74,10.0,SSE,8.1,-,N/A,,Overcast,150,2013-06-26 13:09:00
8:58 AM,71.6,69.8,94,29.75,10.0,SE,4.6,-,N/A,,Overcast,140,2013-06-26 13:58:00
9:58 AM,75.2,69.8,83,29.75,10.0,ESE,5.8,-,N/A,,Mostly Cloudy,120,2013-06-26 14:58:00
10:58 AM,77.0,69.8,78,29.73,10.0,SSE,5.8,-,N/A,,Mostly Cloudy,160,2013-06-26 15:58:00
11:58 AM,80.6,71.6,74,29.75,10.0,SE,5.8,-,N/A,,Mostly Cloudy,130,2013-06-26 16:58:00
12:58 PM,82.4,71.6,70,29.75,10.0,SSE,9.2,-,N/A,,Mostly Cloudy,150,2013-06-26 17:58:00
1:58 PM,84.2,69.8,62,29.73,10.0,SSE,9.2,-,N/A,,Mostly Cloudy,160,2013-06-26 18:58:00
2:58 PM,84.2,68.0,58,29.74,10.0,SSE,8.1,-,N/A,,Mostly Cloudy,160,2013-06-26 19:58:00
3:58 PM,86.0,69.8,58,29.75,10.0,Variable,5.8,-,N/A,,Mostly Cloudy,0,2013-06-26 20:58:00
4:58 PM,84.2,69.8,62,29.72,10.0,SSE,5.8,-,N/A,,Mostly Cloudy,160,2013-06-26 21:58:00
5:58 PM,80.6,71.6,74,29.73,10.0,SSW,4.6,-,N/A,,Mostly Cloudy,210,2013-06-26 22:58:00
6:58 PM,80.6,71.6,74,29.73,10.0,SSW,5.8,-,N/A,,Mostly Cloudy,210,2013-06-26 23:58:00
7:58 PM,80.6,71.6,74,29.72,10.0,SSW,8.1,-,N/A,,Mostly Cloudy,210,2013-06-27 00:58:00
8:58 PM,77.0,71.6,83,29.73,10.0,Calm,Calm,-,N/A,,Mostly Cloudy,0,2013-06-27 01:58:00
9:58 PM,73.4,73.4,100,29.75,10.0,Calm,Calm,-,N/A,,Mostly Cloudy,0,2013-06-27 02:58:00
10:58 PM,71.6,71.6,100,29.77,10.0,WNW,3.5,-,N/A,,Mostly Cloudy,290,2013-06-27 03:58:00
11:58 PM,70.0,70.0,100,29.78,8.0,West,2.3,-,N/A,,Clear,280,2013-06-27 04:58:00